Location: Bulan
(43.0403°N, 0.2777°E)
Time: 12:43:17
(UTC+00:00)

Daily predictions for brighter satellites

Satellite Brightness Start Highest point End
(mag) Time Altitude Azimuth Time Altitude Azimuth Time Altitude Azimuth
BREEZE-M DEB 4.2 19:28:26 10° WNW 19:31:41 55° SSW 19:42:16 10° SE
Meteor 1-26 Rocket 4.3 19:33:07 10° N 19:38:43 85° W 19:44:08 10° S
Cosmos 1346 Rocket 4.2 19:38:58 10° SSW 19:42:46 43° WNW 19:46:37 10° N
Cosmos 1900 4.4 19:38:28 10° SSW 19:43:17 61° ESE 19:48:14 10° NE
MONITOR-E 3.9 19:44:50 10° SSE 19:47:07 42° ENE 19:49:24 10° N
Cosmos 1408 Rocket 4.4 19:45:43 10° SSW 19:50:06 56° W 19:54:30 10° N
USA 267 3.4 19:43:53 10° NE 19:50:17 54° SE 19:56:39 10° SSW
COSMOS 2406 3.5 19:46:58 10° S 19:52:28 48° ESE 19:57:58 10° NE
Shenzhou-11 Module 1.2 19:50:47 10° W 19:53:09 88° SSW 19:55:30 10° E
Cosmos 1743 Rocket 3.6 19:49:29 10° S 19:53:56 83° E 19:58:25 10° N
Cosmos 2366 rocket 4.1 19:48:25 10° S 19:54:41 86° W 20:00:55 10° N
CZ-2C R/B 3.9 19:53:17 10° NNE 19:57:47 49° E 20:02:10 10° S
Intercosmos 25 4.3 19:54:59 10° N 19:58:48 29° ENE 20:01:25 12° SE
Lacrosse 5 4.2 19:55:55 10° NW 19:59:14 17° N 20:02:33 10° NE
MOS 1 Rocket 4.5 19:54:14 10° N 19:59:34 56° WNW 20:04:46 10° SSW
Cosmos 1862 3.5 19:58:18 10° S 20:02:12 51° E 20:06:09 10° NNE
Sich 1 3.8 19:59:11 10° SSE 20:03:11 34° E 20:07:12 10° NNE
SJ-6B 3.4 20:00:44 10° S 20:04:46 61° W 20:08:46 10° NNW
BREEZE-M DEB (TANK) 4.1 20:02:58 10° W 20:06:51 30° NNW 20:08:50 10° NE
IRIDIUM 106 4.4 20:02:00 10° SSE 20:07:05 56° E 20:12:11 10° NNE
Cosmos 2082 Rocket 3.2 20:03:10 10° SSE 20:07:47 26° ESE 20:12:24 10° NE
Cosmos 1818 4.2 20:02:46 10° NNW 20:08:00 44° NE 20:12:24 14° ESE
Meteor 2-6 Rocket 4.2 20:02:41 10° N 20:08:12 74° E 20:13:50 10° SSE
Cosmos 1500 Rocket 4.0 20:09:04 10° SSW 20:13:20 63° W 20:17:38 10° N
Ariane Rocket 4.2 20:12:13 10° S 20:17:02 43° W 20:21:51 10° NNW
Resurs 1-3 3.6 20:14:06 10° SSE 20:18:29 89° W 20:22:54 10° NNW
USA 186 4.1 20:17:12 10° SW 20:18:31 14° W 20:19:49 10° WNW
Cosmos 1190 Rocket 4.5 20:15:44 10° S 20:20:35 39° ESE 20:25:30 10° NE
Meteor 1-4 Rocket 4.0 20:18:39 10° NNE 20:21:19 20° ENE 20:22:27 17° E
Terra 3.9 20:21:32 10° E 20:23:18 12° ENE 20:25:05 10° NE
Cosmos 407 Rocket 3.7 20:18:19 10° S 20:23:28 52° ESE 20:28:36 10° NNE
Cosmos 1666 Rocket 4.1 20:21:27 14° SSE 20:24:44 38° E 20:28:46 10° NNE
USA 234 4.0 20:18:46 10° E 20:24:50 46° NNE 20:30:59 10° NW
SL-8 R/B 3.7 20:20:37 10° WNW 20:25:28 80° SSW 20:28:49 20° SE
CZ-2C R/B 3.3 20:20:27 10° N 20:25:31 58° WNW 20:30:37 10° SSW
MetOp-B 4.4 20:25:45 16° SE 20:29:49 54° ENE 20:35:02 10° N
Meteor 1-27 Rocket 3.9 20:26:26 10° N 20:32:18 61° ENE 20:36:53 17° SSE
Meteor 1-10 Rocket 4.3 20:27:09 10° NNW 20:32:50 84° W 20:38:36 10° S
USA 238 DEB 4.3 20:30:29 10° S 20:36:08 31° ESE 20:41:57 10° NE
USA 238 4.3 20:30:38 10° S 20:36:15 31° ESE 20:42:02 10° NE
Cosmos 1805 Rocket 3.7 20:32:01 10° SSW 20:36:26 75° W 20:40:54 10° N
SPOT 5 4.3 20:35:54 16° E 20:37:23 19° ENE 20:40:26 10° NNE
BREEZE-M DEB (TANK) 2.9 20:32:56 10° WNW 20:37:40 37° SW 20:39:00 23° S
SPOT 1/Viking Rocket 4.1 20:39:53 23° SE 20:42:44 43° ENE 20:47:40 10° N
Cosmos 1980 Rocket 2.9 20:38:46 10° NNW 20:44:06 40° ENE 20:47:05 23° ESE
OE (NEXTSAT) 4.2 20:40:42 10° WNW 20:44:13 80° SSW 20:45:31 36° ESE
SL-4 R/B 1.7 20:42:15 10° SW 20:46:15 80° SE 20:49:58 10° ENE
BREEZE-M DEB (TANK) 3.5 20:45:23 10° WNW 20:47:54 39° N 20:53:28 10° ENE
Cosmos 405 Rocket 4.5 20:49:21 17° ENE 20:49:21 17° ENE 20:51:07 10° NE
Cosmos 1140 Rocket 3.4 20:43:55 10° S 20:49:06 68° ESE 20:54:20 10° NNE
Cosmos 972 4.4 20:44:19 10° NNW 20:49:31 83° WSW 20:52:44 22° SSE
ATLAS 5 CENTAUR R/B 2.8 20:46:49 10° NW 20:52:35 58° WSW 20:57:17 20° SSE
Cosmos 1023 Rocket 4.4 20:48:21 10° SSW 20:53:37 77° ESE 20:58:54 10° NNE
USA 32 4.4 20:53:02 27° SE 20:55:30 46° E 21:00:29 10° NNE
Cosmos 389 Rocket 3.8 20:52:33 10° NNW 20:55:45 37° W 20:58:14 15° SSW
Cosmos 1633 Rocket 3.0 20:55:05 21° S 20:57:58 74° E 21:02:24 10° NNE
Cosmos 1833 Rocket 2.9 20:52:37 10° SSW 20:58:12 74° WNW 21:03:51 10° NNE
Cosmos 1812 3.7 20:55:12 10° NNW 20:58:52 44° W 21:01:40 16° SSW
Cosmos 1697 Rocket 2.6 20:54:19 10° NNW 20:59:57 87° WSW 21:03:04 28° SSE
Cosmos 1867 3.5 20:59:14 10° SSW 21:04:34 62° ESE 21:09:58 10° NE
CENTAUR R/B 3.3 21:04:46 27° ESE 21:04:49 27° ESE 21:10:11 10° NE
Resurs 01 Rocket 2.8 21:05:06 14° SSW 21:08:34 39° W 21:12:44 10° NNW
Cosmos 1707 Rocket 4.0 21:06:12 10° NNW 21:10:29 58° W 21:12:53 24° SSW
Landsat 7 3.8 21:08:59 32° SSE 21:11:14 86° WSW 21:16:02 10° NNW
FALCON 9 DEB 3.1 21:08:27 10° SW 21:11:57 82° NW 21:15:21 11° NE
deb Kosmos-1763 3.9 21:14:16 39° SSW 21:15:32 86° WNW 21:19:11 10° NNE
Cosmos 676 Rocket 3.9 21:14:02 18° SSW 21:17:59 77° ESE 21:23:20 10° NNE
IGS 5A 3.6 21:17:35 37° S 21:19:04 66° W 21:23:12 10° NNW
Meteor 1-25 Rocket 4.1 21:17:53 33° SSE 21:20:21 66° E 21:25:55 10° NNE
Cosmos 1470 Rocket 3.5 21:19:31 47° SSE 21:20:41 72° E 21:25:05 10° NNE
ATLAS 5 CENTAUR R/B 4.3 21:20:03 10° NNE 21:21:38 13° NE 21:23:25 11° ENE
Cosmos 192 4.4 21:16:48 10° NNW 21:21:42 65° ENE 21:22:57 47° SE
Cosmos 1934 Rocket 4.2 21:16:23 11° SSW 21:22:35 74° W 21:28:59 10° N
Aureole 1 Rocket 4.3 21:17:05 10° SSW 21:23:39 88° WNW 21:31:51 10° NNE
Shenzhou-11 Module 4.4 21:24:51 10° W 21:25:14 13° W 21:25:14 13° W
Cosmos 2360 4.3 21:21:30 10° NNW 21:27:13 70° WSW 21:29:33 37° S
GP-B 3.3 21:24:29 10° N 21:28:55 67° W 21:30:41 35° SSW
NOSS 3-2 (A) 3.2 21:25:00 10° SSW 21:30:33 72° ESE 21:36:54 10° NE
USA 267 4.0 21:26:57 10° NE 21:33:16 53° NNW 21:39:34 10° WSW
Cosmos 921 Rocket 2.9 21:30:29 10° N 21:34:41 62° ENE 21:34:50 61° E
NOSS 3-2 (C) 3.4 21:35:51 46° SE 21:36:33 49° ESE 21:42:34 10° NE
Cosmos 1862 Rocket 3.8 21:32:38 10° NNW 21:37:04 64° W 21:38:11 46° SSW
ERS-1 Rocket 2.9 21:36:08 51° SSE 21:37:26 89° E 21:42:30 10° NNW
SAR-Lupe-2 3.7 21:38:41 10° NNE 21:41:55 70° N 21:41:55 70° N
SL-16 R/B 3.1 21:37:44 10° N 21:42:57 36° ENE 21:44:17 32° E
Lacrosse 5 3.1 21:38:57 10° NW 21:43:34 33° NNE 21:45:31 25° ENE
Cosmos 468 Rocket 4.3 21:39:46 10° NNW 21:44:58 53° ENE 21:45:45 48° E
Cosmos 1741 Rocket 4.2 21:48:23 52° E 21:48:23 52° E 21:53:20 10° NNE
Cosmos 2082 Rocket 3.1 21:46:04 10° SW 21:51:34 48° WNW 21:57:03 10° NNE
Cosmos 2278 4.2 21:51:37 10° NW 21:57:08 51° WSW 21:58:39 40° SSW
CARTOSAT-1 4.0 21:57:12 51° WSW 21:57:35 53° W 22:01:50 10° NNW
Terra 1.6 22:00:02 79° S 22:00:20 87° WSW 22:05:08 10° NNW
Cosmos 1933 Rocket 3.9 22:01:23 53° WSW 22:01:57 58° W 22:06:20 10° N
Cosmos 2322 Rocket 2.8 21:59:57 10° NNW 22:05:24 43° ENE 22:06:13 41° E
Cosmos 1238 Rocket 4.4 22:06:54 25° NW 22:06:54 25° NW 22:08:46 10° NNW
Cosmos 2100 Rocket 3.9 22:05:36 59° SE 22:06:22 64° E 22:12:27 10° NNE
Cosmos 1602 4.5 22:06:47 50° WNW 22:06:47 50° WNW 22:10:26 10° N
Okean 1 3.8 22:03:31 10° NNW 22:07:06 57° WNW 22:07:06 57° WNW
USA 234 3.3 22:06:06 51° SSE 22:07:40 67° SW 22:14:10 10° NW
Cosmos 1437 Rocket 3.6 22:08:02 10° N 22:10:50 47° NNW 22:10:50 47° NNW
Cosmos 1869 Rocket 4.1 22:13:01 52° NE 22:13:01 52° NE 22:16:30 10° NNE
SPOT 5 3.4 22:15:08 41° W 22:15:12 41° W 22:19:19 10° NNW
Cosmos 2360 Rocket 3.3 22:14:26 10° N 22:19:29 31° NE 22:20:19 30° ENE
ATLAS 3B R/B 3.5 22:21:13 32° E 22:21:13 32° E 22:25:34 10° NE
Iridium 4 Rocket 3.7 22:21:45 51° NNE 22:21:45 51° NNE 22:25:01 10° N
Geosat 4.4 22:20:48 52° ENE 22:20:56 52° ENE 22:25:50 10° NNW
Cosmos 2173 Rocket 3.8 22:21:11 69° SSE 22:21:55 79° E 22:28:04 10° N
Meteor 1-19 Rocket 4.4 22:18:39 10° NNW 22:23:59 59° W 22:24:35 55° SW
Cosmos 405 Rocket 4.4 22:24:29 28° WNW 22:24:29 28° WNW 22:27:36 10° NNW
Cosmos 1703 Rocket 4.2 22:20:28 10° NNW 22:24:15 52° WNW 22:24:15 52° WNW
SL-4 R/B 3.8 22:22:49 10° WNW 22:26:07 28° NNW 22:27:13 23° NNE
USA 238 DEB 4.2 22:20:11 10° SW 22:26:42 56° NW 22:33:30 10° NNE
USA 238 4.2 22:20:18 10° SW 22:26:47 57° NW 22:33:36 10° NNE
Cosmos 1725 Rocket 4.3 22:27:19 48° E 22:27:19 48° E 22:33:20 10° NNE
Cosmos 1980 Rocket 3.3 22:23:01 10° NW 22:27:57 31° WSW 22:28:51 30° WSW
Cosmos 1763 Rocket 3.5 22:25:55 10° NNW 22:31:09 72° W 22:31:09 72° W
Cosmos 2333 Rocket 4.0 22:35:25 10° N 22:39:43 21° NE 22:41:19 19° ENE
Cosmos 2016 Rocket 3.9 22:39:51 73° ESE 22:40:08 74° E 22:46:30 10° N
Meteor 1-5 Rocket 4.2 22:40:38 80° SSW 22:40:59 86° W 22:46:59 10° N
Cosmos 2061 Rocket 3.8 22:41:22 75° ESE 22:41:32 75° E 22:47:44 10° N
Cosmos 1459 Rocket 4.0 22:42:36 62° SW 22:43:34 73° W 22:49:56 10° N
Meteor 1-13 Rocket 4.2 22:38:08 10° N 22:43:23 74° NE 22:43:23 74° NE
Okean 1-7 4.4 22:42:03 10° NNW 22:45:21 33° WNW 22:45:21 33° WNW
MOS 1-B Rocket 3.7 22:41:04 10° NNE 22:46:44 89° NE 22:46:44 89° NE
Cosmos 2221 Rocket 4.5 22:43:15 10° N 22:46:29 46° N 22:46:29 46° N
Cosmos 1864 Rocket 4.3 22:53:23 79° E 22:53:23 79° E 22:59:36 10° N
CENTAUR R/B 3.0 22:51:50 30° WSW 22:54:50 58° NW 23:01:49 10° NNE
Thor Agena Rocket 3.9 22:52:53 10° NNE 22:57:00 59° NNE 22:57:00 59° NNE
Cosmos 1802 Rocket 4.1 22:58:41 62° WSW 22:59:27 68° W 23:05:50 10° N
Cosmos 967 Rocket 4.4 22:54:26 10° NNW 23:00:50 74° ENE 23:01:03 73° ENE
Meteor 2-4 Rocket 4.3 22:55:34 10° NNW 23:00:58 47° W 23:00:58 47° W
Cosmos 44 3.9 22:57:35 10° NNW 23:01:33 57° NNW 23:01:33 57° NNW
Spot 4 4.5 23:06:33 54° NNW 23:06:33 54° NNW 23:10:18 10° NNW
Cosmos 2346 Rocket 4.5 23:05:16 10° NNW 23:11:12 69° W 23:11:12 69° W
Cosmos 2233 Rocket 4.0 23:14:31 71° ENE 23:14:31 71° ENE 23:20:32 10° NNE
Cosmos 841 Rocket 4.4 23:18:10 10° NNW 23:22:05 41° WNW 23:22:05 41° WNW
Cosmos 540 Rocket 4.5 23:19:23 10° NNW 23:23:10 40° WNW 23:23:10 40° WNW
Lacrosse 5 3.2 23:21:47 10° NW 23:24:40 33° WNW 23:24:40 33° WNW
SL-16 R/B 3.3 23:21:53 10° NW 23:26:08 34° W 23:26:08 34° W
Cosmos 1833 4.5 23:28:45 64° NNE 23:28:45 64° NNE 23:33:30 10° NNE
Cosmos 2322 4.1 23:24:22 10° NNW 23:29:31 56° NE 23:29:31 56° NE
Cosmos 2219 Rocket 2.9 23:32:59 10° NNW 23:38:19 47° NE 23:38:19 47° NE
Tsikada Rocket 4.3 23:33:41 10° NNW 23:39:45 58° W 23:39:45 58° W
Cosmos 2333 4.5 23:38:37 10° NNW 23:43:44 66° NNE 23:43:44 66° NNE
Cosmos 2322 Rocket 3.7 23:44:24 10° NW 23:48:01 27° W 23:48:01 27° W
